Wrangell, AK

3:42 AM AKDT on April 29, 2017 (GMT -0800)
Wrangell

Weather History for PAWG - August, 2012

Change the Weather History Date:

Saturday, August 25, 2012

  Actual Average Record
Temperature  
Mean Temperature 56 °F -  
Max Temperature 60 °F 62 °F 76 °F (1987)
Min Temperature 51 °F 48 °F 36 °F (1959)
Degree Days  
Heating Degree Days 10    
Growing Degree Days 6 (Base 50)    
Moisture  
Dew Point 48 °F    
Average Humidity 79    
Maximum Humidity 88    
Minimum Humidity 59    
Precipitation  
Precipitation 0.00 in - - ()
Sea Level Pressure  
Sea Level Pressure 30.00 in    
Wind  
Wind Speed 4 mph (NW)    
Max Wind Speed 14 mph    
Max Gust Speed -    
Visibility 10 miles    
Events      
Averages and records for this station are not official NWS values.
T = Trace of Precipitation, MM = Missing Value Source: NWS Daily Summary

Daily Weather History Graph

Daily Weather History Graph

Search for Another Location

Airport or City:

Trip Planner

Search our weather history database for the weather conditions in past years. The results will help you decide how hot, cold, wet, or windy it might be!

Date:

Astronomy

Aug. 25, 2012 Rise Set
Actual Time 5:40 AM AKDT 8:01 PM AKDT
Civil Twilight 4:58 AM AKDT 8:42 PM AKDT
Nautical Twilight 4:05 AM AKDT 9:35 PM AKDT
Astronomical Twilight 2:58 AM AKDT 10:40 PM AKDT
Moon 4:22 PM AKDT (8/25) 11:50 PM AKDT (8/25)
Length of Visible Light 15h 43m
Length of Day
14h 21m
Waxing Gibbous, 64% of the Moon is Illuminated
Aug 25
Waxing Gibbous
Aug 31
Full
Sep 8
Last Quarter
Sep 15
New
Sep 22
First Quarter

Hourly Weather History & Observations

Time (AKDT) Temp. Dew Point Humidity Pressure Visibility Wind Dir Wind Speed Gust Speed Precip Events Conditions
12:16 AM 53.6 °F 48.2 °F 82% 30.08 in 10.0 mi SE 3.5 mph - N/A   Overcast
12:36 AM 53.6 °F 48.2 °F 82% 30.09 in 10.0 mi Calm Calm - N/A   Overcast
12:56 AM 53.6 °F 48.2 °F 82% 30.08 in 10.0 mi SE 3.5 mph - N/A   Overcast
1:16 AM 53.6 °F 48.2 °F 82% 30.08 in 10.0 mi ESE 6.9 mph - N/A   Overcast
1:36 AM 53.6 °F 48.2 °F 82% 30.08 in 10.0 mi ESE 3.5 mph - N/A   Overcast
1:56 AM 51.8 °F 48.2 °F 88% 30.07 in 10.0 mi East 3.5 mph - N/A   Overcast
2:16 AM 51.8 °F 48.2 °F 88% 30.07 in 10.0 mi SE 4.6 mph - N/A   Overcast
2:36 AM 51.8 °F 48.2 °F 88% 30.07 in 10.0 mi ESE 4.6 mph - N/A   Overcast
2:56 AM 51.8 °F 46.4 °F 82% 30.07 in 10.0 mi SE 5.8 mph - N/A   Overcast
3:16 AM 51.8 °F 48.2 °F 88% 30.06 in 10.0 mi ESE 5.8 mph - N/A   Overcast
3:36 AM 51.8 °F 48.2 °F 88% 30.06 in 10.0 mi ESE 4.6 mph - N/A   Overcast
3:56 AM 51.8 °F 48.2 °F 88% 30.06 in 10.0 mi SE 3.5 mph - N/A   Overcast
4:16 AM 51.8 °F 48.2 °F 88% 30.06 in 10.0 mi East 3.5 mph - N/A   Overcast
4:36 AM 51.8 °F 46.4 °F 82% 30.05 in 10.0 mi Calm Calm - N/A   Overcast
4:56 AM 51.8 °F 46.4 °F 82% 30.05 in 10.0 mi Calm Calm - N/A   Overcast
5:16 AM 51.8 °F 46.4 °F 82% 30.05 in 10.0 mi ESE 3.5 mph - N/A   Overcast
5:36 AM 51.8 °F 48.2 °F 88% 30.04 in 10.0 mi SE 3.5 mph - N/A   Overcast
5:56 AM 51.8 °F 48.2 °F 88% 30.04 in 10.0 mi ESE 4.6 mph - N/A   Overcast
6:16 AM 51.8 °F 48.2 °F 88% 30.04 in 10.0 mi SE 4.6 mph - N/A   Overcast
6:36 AM 51.8 °F 48.2 °F 88% 30.04 in 10.0 mi SE 5.8 mph - N/A   Overcast
6:56 AM 51.8 °F 48.2 °F 88% 30.03 in 10.0 mi ESE 4.6 mph - N/A   Overcast
7:16 AM 51.8 °F 48.2 °F 88% 30.03 in 10.0 mi ESE 5.8 mph - N/A   Overcast
7:36 AM 51.8 °F 48.2 °F 88% 30.03 in 10.0 mi ESE 6.9 mph - N/A   Overcast
7:56 AM 53.6 °F 48.2 °F 82% 30.03 in 10.0 mi ESE 5.8 mph - N/A   Overcast
8:16 AM 53.6 °F 48.2 °F 82% 30.03 in 10.0 mi East 4.6 mph - N/A   Overcast
8:36 AM 53.6 °F 48.2 °F 82% 30.03 in 10.0 mi ENE 3.5 mph - N/A   Overcast
8:56 AM 53.6 °F 48.2 °F 82% 30.03 in 10.0 mi Calm Calm - N/A   Overcast
9:16 AM 53.6 °F 48.2 °F 82% 30.03 in 10.0 mi Calm Calm - N/A   Overcast
9:36 AM 53.6 °F 48.2 °F 82% 30.03 in 10.0 mi Calm Calm - N/A   Overcast
9:56 AM 53.6 °F 48.2 °F 82% 30.02 in 10.0 mi Calm Calm - N/A   Mostly Cloudy
10:16 AM 53.6 °F 48.2 °F 82% 30.02 in 10.0 mi NNW 3.5 mph - N/A   Mostly Cloudy
10:36 AM 53.6 °F 48.2 °F 82% 30.01 in 10.0 mi NW 4.6 mph - N/A   Mostly Cloudy
10:56 AM 53.6 °F 48.2 °F 82% 30.01 in 10.0 mi NW 4.6 mph - N/A   Mostly Cloudy
11:16 AM 53.6 °F 48.2 °F 82% 30.01 in 10.0 mi NW 3.5 mph - N/A   Mostly Cloudy
11:36 AM 55.4 °F 48.2 °F 77% 30.00 in 10.0 mi NNW 3.5 mph - N/A   Mostly Cloudy
11:56 AM 55.4 °F 48.2 °F 77% 30.00 in 10.0 mi NNW 3.5 mph - N/A   Overcast
12:16 PM 57.2 °F 50.0 °F 77% 30.00 in 10.0 mi NW 4.6 mph - N/A   Overcast
12:36 PM 57.2 °F 48.2 °F 72% 30.00 in 10.0 mi WNW 5.8 mph - N/A   Overcast
12:56 PM 57.2 °F 48.2 °F 72% 29.99 in 10.0 mi WNW 6.9 mph - N/A   Overcast
1:16 PM 57.2 °F 48.2 °F 72% 29.99 in 10.0 mi NW 6.9 mph - N/A   Overcast
1:36 PM 57.2 °F 48.2 °F 72% 29.99 in 10.0 mi WNW 6.9 mph - N/A   Overcast
1:56 PM 59.0 °F 48.2 °F 67% 29.98 in 10.0 mi WNW 6.9 mph - N/A   Overcast
2:16 PM 60.8 °F 48.2 °F 63% 29.98 in 10.0 mi West 6.9 mph - N/A   Overcast
2:36 PM 60.8 °F 46.4 °F 59% 29.98 in 10.0 mi West 5.8 mph - N/A   Overcast
2:56 PM 59.0 °F 48.2 °F 67% 29.98 in 10.0 mi NW 6.9 mph - N/A   Overcast
3:16 PM 57.2 °F 48.2 °F 72% 29.98 in 10.0 mi NW 9.2 mph - N/A   Overcast
3:36 PM 57.2 °F 46.4 °F 67% 29.97 in 10.0 mi WNW 10.4 mph - N/A   Overcast
3:56 PM 57.2 °F 48.2 °F 72% 29.97 in 10.0 mi NW 10.4 mph - N/A   Scattered Clouds
4:16 PM 57.2 °F 46.4 °F 67% 29.96 in 10.0 mi NW 13.8 mph - N/A   Scattered Clouds
4:36 PM 57.2 °F 46.4 °F 67% 29.97 in 10.0 mi WNW 8.1 mph - N/A   Scattered Clouds
4:56 PM 55.4 °F 46.4 °F 72% 29.96 in 10.0 mi NW 9.2 mph - N/A   Overcast
5:16 PM 55.4 °F 46.4 °F 72% 29.96 in 10.0 mi NW 9.2 mph - N/A   Overcast
5:36 PM 55.4 °F 46.4 °F 72% 29.95 in 10.0 mi NW 10.4 mph - N/A   Overcast
5:56 PM 55.4 °F 46.4 °F 72% 29.95 in 10.0 mi NW 8.1 mph - N/A   Clear
6:16 PM 55.4 °F 46.4 °F 72% 29.95 in 10.0 mi NW 8.1 mph - N/A   Clear
6:36 PM 55.4 °F 46.4 °F 72% 29.95 in 10.0 mi WNW 5.8 mph - N/A   Clear
6:56 PM 55.4 °F 46.4 °F 72% 29.95 in 10.0 mi WNW 5.8 mph - N/A   Mostly Cloudy
7:16 PM 53.6 °F 46.4 °F 77% 29.95 in 10.0 mi NW 6.9 mph - N/A   Mostly Cloudy
7:36 PM 53.6 °F 46.4 °F 77% 29.94 in 10.0 mi NW 6.9 mph - N/A   Mostly Cloudy
7:56 PM 53.6 °F 46.4 °F 77% 29.94 in 10.0 mi WNW 5.8 mph - N/A   Mostly Cloudy
8:16 PM 53.6 °F 46.4 °F 77% 29.95 in 10.0 mi West 4.6 mph - N/A   Mostly Cloudy
8:36 PM 53.6 °F 46.4 °F 77% 29.94 in 10.0 mi West 5.8 mph - N/A   Mostly Cloudy
8:56 PM 53.6 °F 46.4 °F 77% 29.94 in 10.0 mi WNW 4.6 mph - N/A   Overcast
9:16 PM 53.6 °F 46.4 °F 77% 29.94 in 10.0 mi NW 6.9 mph - N/A   Overcast
9:36 PM 53.6 °F 48.2 °F 82% 29.94 in 10.0 mi NNW 4.6 mph - N/A   Overcast
9:56 PM 51.8 °F 46.4 °F 82% 29.95 in 10.0 mi NW 4.6 mph - N/A   Overcast
10:16 PM 51.8 °F 46.4 °F 82% 29.95 in 10.0 mi Calm Calm - N/A   Overcast
10:36 PM 51.8 °F 48.2 °F 88% 29.95 in 10.0 mi West 3.5 mph - N/A   Overcast
10:56 PM 51.8 °F 48.2 °F 88% 29.95 in 10.0 mi WNW 3.5 mph - N/A   Overcast
11:16 PM 51.8 °F 48.2 °F 88% 29.95 in 10.0 mi WNW 3.5 mph - N/A   Overcast
11:36 PM 51.8 °F 48.2 °F 88% 29.95 in 10.0 mi NNW 3.5 mph - N/A   Overcast
11:56 PM 51.8 °F 46.4 °F 82% 29.94 in 10.0 mi Calm Calm - N/A   Overcast